Regional Weather Roundup
Issued by NWS

Home | Current Version | Previous Version | Text Only | Print | Product List | Glossary On
Versions: 1 2 3 4 5 6 7 8 9 10 11 12 13 14 15 16 17 18 19 20 21 22 23 24 25 26 27 28 29 30 31 32 33 34 35 36 37 38 39 40 41 42 43 44 45 46 47 48 49 50
000
ASUS45 KSLC 041010
RWRUT

UTAH REGIONAL WEATHER ROUNDUP
NATIONAL WEATHER SERVICE SALT LAKE CITY UT
400 AM MDT FRI SEP 04 2015

UTZ001>011-023>025-041100-

NORTHERN UTAH

CITY           SKY/WX    TMP DP  RH WIND       PRES   REMARKS
BRIGHAM CITY     N/A     63  44  49 N5        29.81R
HILL AFB         N/A     71  37  28 S14       29.83S
LOGAN          CLEAR     54  47  77 W3        29.83R
OGDEN            N/A     72  37  28 S12       29.81R
PROVO AIRPORT  NOT AVBL
SALT LAKE CITY   N/A     74  36  25 S14       29.81S
VERNAL         CLEAR     57  40  52 W6        29.95R
WENDOVER         N/A     63  36  36 CALM      29.82R
HEBER CITY       N/A     70  32  24 SW14G20   29.94R
WEST JORDAN    CLEAR     72  37  28 SE15      29.86R

$$

UTZ012>022-026-027-041100-

SOUTHERN/CENTRAL UTAH

CITY           SKY/WX    TMP DP  RH WIND       PRES   REMARKS
BLANDING         N/A     61  47  60 CALM      30.15S
BRYCE CANYON     N/A     50  32  50 S6        30.15S
CEDAR CITY       N/A     64  33  31 S12       29.98R
DELTA            N/A     65  30  26 S13       29.90S
HANKSVILLE       N/A     73  43  33 S10G17    29.93R
MILFORD          N/A     56  28  34 SW7       29.92S
MOAB/CYNLANDS  CLEAR     69  42  37 CALM      29.91R
PRICE            N/A     57  34  41 N6        29.98S
ST GEORGE        N/A     75  39  27 SE10      29.85R
KANAB            N/A     55  46  71 NE6       30.05S

$$

REGIONAL REPORTS     COLORADO/ARIZONA

CITY           SKY/WX    TMP DP  RH WIND       PRES   REMARKS
CRAIG, CO      CLEAR     54  45  71 SE8       30.06S
GRAND JUNCTION CLEAR     62  51  67 SE17      29.95S
RIFLE          PTCLDY    54  49  83 CALM      30.05R
MONTROSE       CLOUDY    59  49  69 SE6       30.08S
CORTEZ         PTCLDY    57  43  59 NE8       30.09S
PAGE, AZ         N/A     72  52  49 S6        29.95F
GRAND CANYON     N/A     56  51  84 CALM      30.14F
KINGMAN          N/A     69  56  62 SE8       29.92S
FLAGSTAFF      CLOUDY    56  53  90 SW5       30.18S

$$

REGIONAL REPORTS    NEVADA/IDAHO/WYOMING

CITY           SKY/WX    TMP DP  RH WIND       PRES   REMARKS
LAS VEGAS, NV    N/A     82  36  19 S8        29.73S
ELY              N/A     56  28  34 S9        29.94S
ELKO             N/A     51  35  54 NE3       29.88R
POCATELLO, ID  CLEAR     54  39  57 SW13      29.88R
BURLEY           N/A     48  39  71 CALM      29.85S
EVANSTON, WY   CLEAR     59  29  31 SW13      30.01S
ROCK SPRINGS   CLEAR     57  37  47 SE9       30.01S
KEMMERER       PTCLDY    48  32  53 CALM      30.03S

$$


USA.gov is the U.S. government's official web portal to all federal, state and local government web resources and services.